Welcome to the New NWS' Forecast!
Most changes are behind the scenes, but click here for differences you might notice.
Latest weather observations around

Haleyville, Posey Field Airport (K1M4)

Using English Units (Switch to International System of Units)
Date/ Time (CST) Wind (mph) Vis. (mi) Weather Sky Cond. Temp (°F) Rel. Humidity Wind Chill (°F) Heat Index (°F) Pressure Precip. (in)
Air Dwpt 6 hour Altimeter (inHg) Sea level (inHg) 1 hr 3 hr 6 hr
Max Min
Nov 18 01:56 S 10 10 Mostly Cloudy BKN012 55 53     93%     29.94 29.99      
Nov 18 01:14 S 8 10 Mostly Clear FEW026 55 52     88%     29.94        
Nov 18 00:56 SSE 9 10 Mostly Cloudy BKN026 56 51     84%     29.95 30      
Nov 17 23:56 S 9 10 Mostly Cloudy BKN026 55 51     86%     29.96 30.01      
Nov 17 23:43 S 11 10 Mostly Cloudy BKN026 55 52     88%     29.96        
Nov 17 22:56 S 10 10 Clear CLR 56 51     84%     29.97 30.03      
Nov 17 21:56 S 9 10 Clear CLR 57 51     81%     29.99 30.05      
Nov 17 20:56 SSE 8 10 Clear CLR 58 50     75%     30 30.06      
Nov 17 19:56 S 9 10 Clear CLR 58 49     72%     30 30.08      
Nov 17 18:56 SSE 10 10 Clear CLR 59 48     67%     30.01 30.08      
Nov 17 17:56 SSE 7 10 Clear CLR 59 47     64%     30.03 30.1      
Nov 17 16:56 SSE 5 10 Mostly Clear FEW075 61 47     60%     30.03 30.09      
Nov 17 15:56 SE 6 10 Clear CLR 64 46     52%     30.03 30.11      
Nov 17 14:56 S 8 10 Clear CLR 67 45     45%     30.04 30.11      
Nov 17 13:56 S 8 10 Mostly Clear FEW036 67 45     45%     30.05 30.13      
Nov 17 12:56 S 8 10 Mostly Cloudy BKN038 66 43     43%     30.09        
Nov 17 11:56   10 Mostly Clear FEW038 64 42     45%     30.12 30.19      
Nov 17 10:56 S 7 10 Clear CLR 61 42     50%     30.15 30.23      
Nov 17 09:56 SSE 6 10 Clear CLR 57 42     57%     30.18 30.26      
Nov 17 08:56 SE 6 10 Clear CLR 53 43     69%     30.2 30.27      
Nov 17 07:56 Calm 9 Clear CLR 42 41     96%     30.2 30.27      
Nov 17 06:56 Calm 6 Fog/Mist CLR 32 32     100%     30.2 30.28      
Nov 17 05:56 Calm 7 Clear CLR 32 32     100%     30.19 30.27      
Nov 17 04:56 Calm 7 Clear CLR 34 34     100%     30.17 30.24      
Nov 17 03:56 Calm 7 Clear CLR 35 35     100%     30.17 30.24      
Nov 17 02:56 Calm 9 Clear CLR 35 35     100%     30.17 30.25      
Nov 17 01:56 Calm 9 Clear CLR 36 36     100%     30.17 30.24      
Nov 17 00:56 Calm 7 Clear CLR 36 36     100%     30.18 30.25      
Nov 16 23:56 Calm 5 Fog/Mist CLR 37 37     100%     30.19 30.27      
Nov 16 22:56 Calm 10 Clear CLR 38 38     100%     30.19 30.27      
Nov 16 21:56 Calm 10 Clear CLR 40 40     100%     30.19 30.27      
Nov 16 20:56 Calm 10 Clear CLR 40 40     100%     30.19 30.26      
Nov 16 19:56 Calm 10 Clear CLR 42 42     100%     30.18 30.24      
Nov 16 18:56 Calm 10 Clear CLR 44 42     93%     30.17 30.25      
Nov 16 17:56 Calm 10 Clear CLR 46 44     93%     30.17        
Nov 16 16:56 NNE 3 10 Clear CLR 53 42     66%     30.16 30.23      
Nov 16 15:56 NNE 3 10 Clear CLR 59 41     51%     30.16 30.22      
Nov 16 14:56 N 3 10 Clear CLR 62 40     44%     30.15 30.21      
Nov 16 13:56 NNW 9 10 Clear CLR 64 40     41%     30.16 30.22      
Nov 16 12:56 3 10 Clear CLR 64 45     50%     30.16 30.22      
Nov 16 11:56 3 10 Clear CLR 62 47     58%     30.18 30.24      
Nov 16 10:56   10 Mostly Clear FEW025 61 49     64%     30.2 30.26      
Nov 16 10:51 NNW 6 10 Mostly Clear FEW025 59 48     67%     30.21        
Nov 16 09:56 E 5 10 Mostly Cloudy BKN023 60 49     67%     30.21 30.27      
Nov 16 09:49 3 10 Mostly Cloudy BKN023 61 50     68%     30.21        
Nov 16 09:33 5 10 Partly Cloudy SCT023 59 48     67%     30.21        
Nov 16 08:56 Calm 10 Mostly Cloudy FEW011 BKN025 56 52     87%     30.21 30.28      
Nov 16 08:54 5 10 Mostly Cloudy FEW011 BKN025 55 52     88%     30.21        
Nov 16 08:20 3 10 Cloudy BKN011 OVC025 55 52     88%     30.2        
Nov 16 07:56 NNE 6 10 Cloudy OVC025 54 52     93%     30.19 30.26      
Nov 16 07:26 NE 5 10 Cloudy FEW006 OVC025 54 54     100%     30.19        
Nov 16 06:56 NNE 5 10 Cloudy OVC006 53 53     100%     30.18 30.25      
Nov 16 06:27 NNE 3 7 Cloudy OVC006 54 54     100%     30.17        
Nov 16 05:56 NNE 5 7 Cloudy OVC004 53 53     100%     30.16 30.23      
Nov 16 05:52 NNE 5 7 Cloudy OVC004 54 54     100%     30.16        
Nov 16 05:18 NNE 3 10 Cloudy BKN006 OVC023 54 54     100%     30.15        
Nov 16 04:56 NNE 5 10 Cloudy FEW008 OVC023 53 53     100%     30.15 30.22      
Nov 16 04:52 N 5 10 Cloudy SCT008 OVC023 54 54     100%     30.15        
Nov 16 04:35 3 10 Cloudy BKN008 OVC023 54 52     94%     30.15        
Nov 16 03:56 Calm 10 Cloudy OVC023 52 52     100%     30.15 30.22      
Nov 16 03:32 Calm 10 Cloudy BKN019 OVC032 54 52     94%     30.14        
Nov 16 02:56 Calm 10 Cloudy OVC034 52 52     100%     30.14 30.21      
Nov 16 01:56 Calm 10 Cloudy SCT026 OVC036 51 51     100%     30.13 30.2      
Nov 16 00:56 Calm 10 Cloudy OVC024 53 52     96%     30.13 30.19      
Nov 15 23:56 Calm 10 Cloudy OVC024 54 52     93%     30.14 30.2      
Nov 15 22:56 Calm 10 Cloudy OVC026 54 52     93%     30.13 30.2      
Nov 15 22:48 Calm 10 Cloudy BKN026 OVC060 54 52     94%     30.14        
Nov 15 22:09 Calm 10 Cloudy SCT029 SCT041 OVC055 54 52     94%     30.13        
Nov 15 21:56 Calm 10 Cloudy BKN029 BKN039 OVC055 54 51     90%     30.13 30.2      
Nov 15 20:56 Calm 10 Cloudy OVC029 54 51     90%     30.14 30.21      
Nov 15 20:47 Calm 10 Cloudy OVC029 54 52     94%     30.14        
Nov 15 19:56 SSW 3 10 Cloudy OVC031 55 50     83%     30.13 30.2      
Nov 15 18:56 Calm 10 Cloudy OVC048 55 50     83%     30.12 30.2      
Nov 15 17:56 S 5 10 Cloudy BKN049 OVC060 56 48     75%     30.1 30.18      
Nov 15 16:56 Calm 10 Cloudy BKN060 OVC095 56 49     77%     30.1 30.18      
Nov 15 15:56 SW 3 10 Cloudy FEW065 OVC100 58 48     70%     30.11 30.18      
Nov 15 14:56 WSW 5 10 Cloudy BKN075 OVC100 58 46     65%     30.1 30.18      
Nov 15 13:56 SW 9 10 Clear CLR 60 46     60%     30.09 30.16      
Nov 15 12:56 S 9 10 Cloudy OVC110 59 47     64%     30.11 30.17      
Nov 15 11:56 S 8 10 Cloudy OVC110 58 46     65%     30.14        
Nov 15 10:56 S 8 10 Cloudy OVC110 55 46     72%     30.15 30.22      
Nov 15 09:56 S 13 10 Cloudy OVC110 54 45     72%     30.17 30.24      
Nov 15 08:56 S 8 10 Cloudy OVC110 50 45     83% 47   30.18 30.25      
Nov 15 07:56 S 9 10 Partly Cloudy SCT100 46 44     93% 41   30.18 30.26      
Nov 15 06:56 S 7 10 Clear CLR 45 44     97% 41     30.26      
Nov 15 05:56 SSE 8 10 Clear CLR 45 44     97% 41   30.17 30.24      
Nov 15 04:56 SSE 7 10 Clear CLR 46 45     96% 42   30.16 30.24      
Nov 15 03:56 SSE 9 10 Clear CLR 47 45     93% 43   30.15 30.21      
Nov 15 02:56 SSE 5 10 Clear CLR 46 45     96% 44   30.16 30.22      
Nov 15 01:56 SSE 3 10 Clear CLR 47 45     93% 46   30.16 30.22      
Jun 12 02:56 S 5 10 Clear CLR 72 69     91%   73 30.14 30.15      
Jun 11 11:56 SSW 10 10 Partly Cloudy SCT075 85 70     61%   89 30.18 30.19      
Jun 10 23:56 ESE 3 10 Clear CLR 66 63     90%       30.14      
Jun 10 12:56 6 10 Partly Cloudy SCT055 83 60     46%   83 30.11 30.14      
Jun 09 04:56 Calm 8 Clear CLR 54 53     97%     29.96 30      
Jun 08 23:56 N 3 10 Clear CLR 60 56     86%     29.97 30.01      
Jun 06 12:56 Calm 10 Mostly Cloudy BKN085 BKN110 71 69     93%   72 29.85 29.87 0   0
Jun 06 00:48 Calm 3 Fog/Mist FEW120 70 70     100%     29.85   0    
Jun 05 22:37 S 5 10 Mostly Cloudy BKN005 72 70     94%   73 29.85        
Notice The following observation data may not be complete
Jun 05 20:09   10 Partly Cloudy FEW015 SCT025          %